Regional Weather Roundup
Issued by NWS Cleveland, OH

Home | Current Version | Previous Version | Graphics & Text | Print | Product List | Glossary On
Versions: 1 2 3 4 5 6 7 8 9 10 11 12 13 14 15 16 17 18 19 20 21 22 23 24 25 26 27 28 29 30 31 32 33 34 35 36 37 38 39 40 41 42 43 44 45 46 47 48 49 50
000
ASUS41 KCLE 110510
RWRCLE
OHIO REGIONAL WEATHER ROUNDUP
NATIONAL WEATHER SERVICE CLEVELAND, OH
1200 AM EST MON DEC 11 2017

NOTE: "FAIR" INDICATES FEW OR NO CLOUDS BELOW 12,000 FEET WITH NO
SIGNIFICANT WEATHER AND/OR OBSTRUCTIONS TO VISIBILITY.

OHZ001>008-015>018-024>027-034-035-043-044-110600-
   NORTHWEST OHIO

CITY           SKY/WX    TMP DP  RH WIND       PRES   REMARKS
DEFIANCE       CLOUDY    30  23  75 NW10      30.03R WCI  21
FINDLAY        CLOUDY    31  22  69 W10       29.99R WCI  22
TOLEDO EXPRESS CLOUDY    29  26  89 NW8       30.00R WCI  21
TOLEDO EXEC    CLOUDY    30  24  78 NW12      30.00R WCI  20
LIMA           CLOUDY    30  24  78 W10       30.00R WCI  21
$$

OHZ009>014-019>023-028>033-038-089-110600-
   NORTHEAST OHIO

CITY           SKY/WX    TMP DP  RH WIND       PRES   REMARKS
CLE-HOPKINS    FLURRIES  31  21  66 W10       29.98S WCI  22
CLE-LAKEFRONT  CLOUDY    32  21  64 SW16      29.95S WCI  21
CUY CO. ARPT   NOT AVBL
LORAIN-ELYRIA  CLOUDY    29  18  63 W7        29.96S WCI  22
ASHTABULA      LGT SNOW  27  24  89 SW10      29.93S FOG     WCI  17
AKRON-CANTON   CLOUDY    30  19  63 SW7       29.94S WCI  23
WOOSTER        CLOUDY    29  21  72 SW6       29.95S WCI  23
MANSFIELD      CLOUDY    30  21  69 W10       29.94S WCI  21
YOUNGSTOWN     FLURRIES  29  20  69 W7        29.93F WCI  22
$$

OHZ042-051>053-060>062-070>072-077>081-110600-
  SOUTHWEST OHIO

CITY           SKY/WX    TMP DP  RH WIND       PRES   REMARKS
CINC-COVINGTON CLEAR     31  23  72 W8        30.06R WCI  23
CINC-LUNKEN    CLEAR     33  22  63 CALM      30.09R
HAMILTON       CLEAR     28  21  75 W5        30.07R WCI  23
DAYTON         CLOUDY    30  24  78 W9        30.03R WCI  22
WRIGHT-PAT AFB CLOUDY    31  22  70 W8        30.02R WCI  23
DAYTON GENERAL CLEAR     30  20  66 W7        30.03R WCI  23
WILMINGTON     CLEAR     29  21  72 W10       30.02R WCI  20
$$

OHZ036-037-039>041-045>050-054>059-063>069-073>076-082>088-110600-
  CENTRAL AND SOUTHEAST OHIO

CITY           SKY/WX    TMP DP  RH WIND       PRES   REMARKS
COLUMBUS       CLOUDY    33  22  63 SW10      29.99S WCI  25
OSU AIRPORT    CLOUDY    32  23  69 SW9       29.99R WCI  24
BOLTON FIELD   CLOUDY    31  23  72 SW7       30.00R WCI  24
RICKENBACK AFB CLOUDY    31  23  71 SW8       30.01R WCI  24
NEWARK         CLOUDY    33  21  61 SW9       29.98S WCI  25
MARION         CLOUDY    31  22  69 NW9       29.98R WCI  23
LANCASTER      CLOUDY    33  22  63 W10       30.00S WCI  25
ZANESVILLE     CLOUDY    32  19  58 SW7       29.98F WCI  26
NEW PHILLY     NOT AVBL
$$




USA.gov is the U.S. government's official web portal to all federal, state and local government web resources and services.